Regional Weather Roundup
Issued by NWS

Home | Current Version | Previous Version | Graphics & Text | Print | Product List | Glossary On
Versions: 1 2 3 4 5 6 7 8 9 10 11 12 13 14 15 16 17 18 19 20 21 22 23 24 25 26 27
000
ASUS45 KCYS 200710
RWRWY

WYOMING REGIONAL WEATHER ROUNDUP
NATIONAL WEATHER SERVICE CHEYENNE WY
1200 AM MST TUE FEB 20 2018

NOTE:  "FAIR" INDICATES FEW OR NO CLOUDS BELOW 12,000 FEET
WITH NO SIGNIFICANT WEATHER AND/OR OBSTRUCTIONS TO VISIBILITY.

WYZ001-200800-
YELLOWSTONE NATIONAL PARK

CITY           SKY/WX    TMP DP  RH WIND       PRES   REMARKS
LK YELLOWSTONE   N/A    -21 -26  77 CALM      29.62S
W YELLOWSTONE  NOT AVBL

$$
WYZ002>013-054>058-071-098>099-200800-
NORTHERN WYOMING

CITY           SKY/WX    TMP DP  RH WIND       PRES   REMARKS
JACKSON        MOCLDY     2  -6  69 NE8       29.67R WCI -12
CODY           FAIR     -10 -14  82 CALM      29.86F
GREYBULL       MOCLDY    -5  -6  96 CALM      29.98R
WORLAND        CLOUDY    -6  -9  86 S7        29.96R FOG     WCI -20
SHERIDAN       CLOUDY    -2  -8  76 W8        29.96R WCI -17
BUFFALO        CLOUDY    -7 -13  75 CALM      29.86R
GILLETTE       FAIR     -13 -17  82 W9        29.91R WCI -31
HULETT         LGT SNOW  -4  -8  84 MISG      29.90R
NEWCASTLE      FLURRIES  -4  -8  84 NW9       29.88R WCI -20

$$
WYZ014>020-022>026-101>103-200800-
CENTRAL WYOMING

CITY           SKY/WX    TMP DP  RH WIND       PRES   REMARKS
BIG PINEY      CLOUDY    -1  -5  82 S6        29.68R WCI -13
PINEDALE       FLURRIES   0  -6  78 S5        29.68R WCI -10
DUBOIS         NOT AVBL
LANDER         CLOUDY    -4  -9  79 NW3       29.79R
RIVERTON       FAIR      -8 -14  74 NE5       29.80S WCI -19
CASPER         FAIR     -20 -23  86 CALM      29.82R
DOUGLAS        CLOUDY    -4 -10  75 NW10      29.83F WCI -21

$$
WYZ021-027>030-104>119-200800-
SOUTHERN WYOMING

CITY           SKY/WX    TMP DP  RH WIND       PRES   REMARKS
EVANSTON       CLOUDY     6   0  76 SW6       29.66R WCI  -4
FORT BRIDGER   PTSUNNY   -2  -6  84 NW5       29.68R WCI -12
ROCK SPRINGS   CLOUDY    -3 -10  72 E7        29.69R HAZE    WCI -16
DIXON          LGT SNOW   0  -5  79 W3        29.73R
RAWLINS        CLOUDY    -5 -11  75 NW5       29.68R HAZE    WCI -16
SARATOGA       CLOUDY    -8 -11  84 CALM      29.66R
LARAMIE        LGT SNOW  -8 -11  86 NW6       29.60R FOG     WCI -21
CHEYENNE       FAIR      -4  -9  79 N10       29.69R WCI -21
TORRINGTON     CLOUDY     0  -7  72 NW7       29.90R WCI -13
PINE BLUFFS    CLOUDY    -2  -8  78 MISG      29.78R

$$




USA.gov is the U.S. government's official web portal to all federal, state and local government web resources and services.